Flag for United Kingdom

Past Weather in Bournemouth, England, United Kingdom — Yesterday and Last 2 Weeks

Now
46 °F

Cool.


Feels Like: 43 °F
Forecast: 69 / 52 °F
Wind: 7 mph from Northwest

Location: Boscombe Down

Current Time: Jul 11, 2020 at 5:52:21 am

Latest Report: Jul 11, 2020 at 4:50 am


Visibility: N/A

Pressure: 30.27 "Hg

Humidity: 87%

Dew Point: 43 °F

Location of BournemouthLocation

Past Weather in Bournemouth — Graph

°F

Bournemouth Temperature Yesterday

Maximum temperature yesterday: 64 °F (at 1:20 pm)
Minimum temperature yesterday: 50 °F (at 11:50 pm)
Average temperature yesterday: 59 °F

High & Low Weather Summary for the Past Weeks

 TemperatureHumidityPressure
High77 °F (Jun 26, 11:20 am)100% (Jun 27, 3:50 am)30.27 "Hg (Jun 27, 3:50 am)
Low46 °F (Jul 11, 2:50 am)46% (Jul 10, 2:20 pm)29.59 "Hg (Jun 27, 10:50 am)
Average60 °F79%29.90 "Hg
* Reported Jun 26 3:50 am — Jul 11 3:50 am, Bournemouth. Weather by CustomWeather, © 2020

Note: Actual official high and low records may vary slightly from our data, if they occured in-between our weather recording intervals... More about our weather records

Bournemouth Weather History for the Previous 24 Hours

Scroll right to see more
 ConditionsComfort  
Time TempWeatherWind HumidityBarometerVisibility
3:50 am
Sat, Jul 11
46 °FCool.7 mph93%30.27 "HgN/A
2:50 am46 °FCool.6 mph87%30.27 "HgN/A
1:50 am48 °FCool.7 mph87%30.27 "HgN/A
12:50 am48 °FCool.8 mph87%30.24 "HgN/A
11:50 pm
Fri, Jul 10
50 °FCool.7 mph82%30.24 "HgN/A
10:50 pm52 °FCool.7 mph77%30.21 "HgN/A
9:50 pm55 °FPassing clouds.8 mph67%30.18 "HgN/A
8:50 pm59 °FScattered clouds.8 mph59%30.15 "HgN/A
7:50 pm61 °FScattered clouds.10 mph55%30.15 "HgN/A
6:50 pm64 °FPartly sunny.14 mph49%30.15 "HgN/A
5:50 pm64 °FPartly sunny.13 mph46%30.12 "HgN/A
4:50 pm64 °FOvercast.15 mph46%30.12 "HgN/A
4:20 pm64 °FBroken clouds.13 mph52%30.12 "HgN/A
3:50 pm63 °FBroken clouds.14 mph49%30.12 "HgN/A
3:20 pm64 °FPartly sunny.9 mph46%30.12 "HgN/A
2:50 pm64 °FPartly sunny.14 mph46%30.12 "HgN/A
2:20 pm64 °FPartly sunny.14 mph46%30.12 "HgN/A
1:50 pm63 °FPartly sunny.16 mph52%30.12 "HgN/A
1:20 pm64 °FPartly sunny.12 mph49%30.09 "HgN/A
12:50 pm61 °FBroken clouds.17 mph52%30.09 "HgN/A
11:56 am63 °FBroken clouds.16 mph49%30.09 "HgN/A
11:20 am61 °FScattered clouds.13 mph55%30.09 "HgN/A
10:50 am59 °FBroken clouds.13 mph59%30.09 "HgN/A
10:20 am59 °FPartly sunny.14 mph59%30.07 "HgN/A
9:50 am59 °FPartly sunny.15 mph63%30.07 "HgN/A
9:20 am59 °FPartly sunny.14 mph63%30.07 "HgN/A
8:50 am57 °FPartly sunny.13 mph72%30.04 "HgN/A
8:20 am57 °FScattered clouds.10 mph77%30.04 "HgN/A
7:50 am57 °FPassing clouds.14 mph72%30.04 "HgN/A
6:50 am55 °FPassing clouds.13 mph82%30.01 "HgN/A
5:50 am54 °FPartly sunny.12 mph94%30.01 "HgN/A
Weather by CustomWeather, © 2020

See weather overview